Year,Month,Day,Hour,Minute,Value (Times are PST for temperature in C)
2020,08,29,00,01,14.20
2020,08,29,00,02,14.20
2020,08,29,00,03,14.10
2020,08,29,00,04,14.10
2020,08,29,00,06,14.00
2020,08,29,00,07,13.90
2020,08,29,00,09,13.80
2020,08,29,00,10,13.70
2020,08,29,00,12,13.70
2020,08,29,00,13,13.60
2020,08,29,00,14,13.60
2020,08,29,00,16,13.50
2020,08,29,00,17,13.40
2020,08,29,00,18,13.40
2020,08,29,00,19,13.40
2020,08,29,00,21,13.30
2020,08,29,00,22,13.30
2020,08,29,00,23,13.30
2020,08,29,00,24,13.30
2020,08,29,00,26,13.30
2020,08,29,00,27,13.30
2020,08,29,00,28,13.30
2020,08,29,00,29,13.30
2020,08,29,00,30,13.30
2020,08,29,00,32,13.40
2020,08,29,00,33,13.40
2020,08,29,00,34,13.40
2020,08,29,00,36,13.40
2020,08,29,00,37,13.40
2020,08,29,00,38,13.40
2020,08,29,00,39,13.50
2020,08,29,00,41,13.50
2020,08,29,00,42,13.50
2020,08,29,00,43,13.50
2020,08,29,00,44,13.60
2020,08,29,00,46,13.60
2020,08,29,00,47,13.60
2020,08,29,00,48,13.70
2020,08,29,00,49,13.70
2020,08,29,00,51,13.70
2020,08,29,00,52,13.70
2020,08,29,00,53,13.70
2020,08,29,00,54,13.70
2020,08,29,00,56,13.70
2020,08,29,00,57,13.70
2020,08,29,00,58,13.70
2020,08,29,00,59,13.70
2020,08,29,01,01,13.70
2020,08,29,01,02,13.70
2020,08,29,01,03,13.70
2020,08,29,01,04,13.70
2020,08,29,01,06,13.60
2020,08,29,01,07,13.60
2020,08,29,01,08,13.60
2020,08,29,01,09,13.60
2020,08,29,01,11,13.60
2020,08,29,01,12,13.60
2020,08,29,01,13,13.50
2020,08,29,01,14,13.50
2020,08,29,01,15,13.50
2020,08,29,01,16,13.50
2020,08,29,01,17,13.50
2020,08,29,01,18,13.50
2020,08,29,01,19,13.50
2020,08,29,01,20,13.50
2020,08,29,01,21,13.50
2020,08,29,01,22,13.50
2020,08,29,01,23,13.40
2020,08,29,01,24,13.40
2020,08,29,01,25,13.40
2020,08,29,01,26,13.40
2020,08,29,01,27,13.40
2020,08,29,01,28,13.40
2020,08,29,01,29,13.40
2020,08,29,01,30,13.40
2020,08,29,01,31,13.40
2020,08,29,01,32,13.50
2020,08,29,01,33,13.50
2020,08,29,01,34,13.50
2020,08,29,01,35,13.50
2020,08,29,01,36,13.50
2020,08,29,01,37,13.50
2020,08,29,01,38,13.50
2020,08,29,01,39,13.50
2020,08,29,01,40,13.40
2020,08,29,01,41,13.40
2020,08,29,01,42,13.40
2020,08,29,01,43,13.40
2020,08,29,01,44,13.40
2020,08,29,01,45,13.40
2020,08,29,01,46,13.40
2020,08,29,01,47,13.40
2020,08,29,01,48,13.40
2020,08,29,01,49,13.40
2020,08,29,01,50,13.30
2020,08,29,01,51,13.30
2020,08,29,01,52,13.30
2020,08,29,01,53,13.30
2020,08,29,01,54,13.30
2020,08,29,01,55,13.30
2020,08,29,01,56,13.30
2020,08,29,01,57,13.30
2020,08,29,01,58,13.30
2020,08,29,01,59,13.30
2020,08,29,02,00,13.30
2020,08,29,02,01,13.30
2020,08,29,02,02,13.30
2020,08,29,02,03,13.30
2020,08,29,02,04,13.30
2020,08,29,02,05,13.30
2020,08,29,02,06,13.30
2020,08,29,02,07,13.30
2020,08,29,02,08,13.30
2020,08,29,02,09,13.30
2020,08,29,02,10,13.30
2020,08,29,02,11,13.30
2020,08,29,02,12,13.30
2020,08,29,02,13,13.30
2020,08,29,02,14,13.30
2020,08,29,02,15,13.30
2020,08,29,02,16,13.30
2020,08,29,02,17,13.30
2020,08,29,02,18,13.30
2020,08,29,02,19,13.30
2020,08,29,02,20,13.30
2020,08,29,02,21,13.30
2020,08,29,02,22,13.30
2020,08,29,02,23,13.30
2020,08,29,02,24,13.30
2020,08,29,02,25,13.30
2020,08,29,02,26,13.30
2020,08,29,02,27,13.30
2020,08,29,02,28,13.30
2020,08,29,02,29,13.30
2020,08,29,02,30,13.30
2020,08,29,02,31,13.30
2020,08,29,02,32,13.30
2020,08,29,02,33,13.30
2020,08,29,02,34,13.30
2020,08,29,02,35,13.30
2020,08,29,02,36,13.40
2020,08,29,02,37,13.40
2020,08,29,02,38,13.50
2020,08,29,02,39,13.50
2020,08,29,02,40,13.50
2020,08,29,02,41,13.60
2020,08,29,02,42,13.60
2020,08,29,02,43,13.60
2020,08,29,02,44,13.70
2020,08,29,02,45,13.70
2020,08,29,02,46,13.70
2020,08,29,02,47,13.70
2020,08,29,02,48,13.70
2020,08,29,02,49,13.70
2020,08,29,02,50,13.70
2020,08,29,02,51,13.70
2020,08,29,02,52,13.70
2020,08,29,02,53,13.70
2020,08,29,02,54,13.70
2020,08,29,02,55,13.70
2020,08,29,02,56,13.70
2020,08,29,02,57,13.70
2020,08,29,02,58,13.70
2020,08,29,02,59,13.70
2020,08,29,03,00,13.70
2020,08,29,03,01,13.70
2020,08,29,03,02,13.70
2020,08,29,03,03,13.70
2020,08,29,03,04,13.70
2020,08,29,03,05,13.70
2020,08,29,03,06,13.70
2020,08,29,03,07,13.70
2020,08,29,03,08,13.70
2020,08,29,03,09,13.70
2020,08,29,03,10,13.60
2020,08,29,03,11,13.60
2020,08,29,03,12,13.60
2020,08,29,03,13,13.50
2020,08,29,03,14,13.50
2020,08,29,03,15,13.50
2020,08,29,03,17,13.40
2020,08,29,03,18,13.40
2020,08,29,03,19,13.40
2020,08,29,03,21,13.30
2020,08,29,03,22,13.30
2020,08,29,03,23,13.30
2020,08,29,03,24,13.30
2020,08,29,03,26,13.30
2020,08,29,03,27,13.20
2020,08,29,03,28,13.20
2020,08,29,03,29,13.20
2020,08,29,03,31,13.10
2020,08,29,03,32,13.10
2020,08,29,03,33,13.10
2020,08,29,03,34,13.10
2020,08,29,03,36,13.00
2020,08,29,03,37,13.00
2020,08,29,03,38,13.00
2020,08,29,03,39,13.00
2020,08,29,03,41,13.00
2020,08,29,03,43,13.00
2020,08,29,03,44,13.00
2020,08,29,03,46,13.00
2020,08,29,03,47,13.00
2020,08,29,03,48,13.00
2020,08,29,03,49,13.00
2020,08,29,03,51,12.90
2020,08,29,03,52,12.90
2020,08,29,03,53,12.90
2020,08,29,03,54,12.90
2020,08,29,03,56,12.90
2020,08,29,03,57,12.90
2020,08,29,03,58,12.90
2020,08,29,03,59,12.90
2020,08,29,04,01,12.80
2020,08,29,04,02,12.80
2020,08,29,04,03,12.80
2020,08,29,04,04,12.80
2020,08,29,04,06,12.80
2020,08,29,04,07,12.80
2020,08,29,04,08,12.80
2020,08,29,04,09,12.80
2020,08,29,04,11,12.70
2020,08,29,04,12,12.70
2020,08,29,04,13,12.70
2020,08,29,04,14,12.70
2020,08,29,04,16,12.60
2020,08,29,04,17,12.60
2020,08,29,04,18,12.60
2020,08,29,04,19,12.50
2020,08,29,04,21,12.50
2020,08,29,04,22,12.50
2020,08,29,04,23,12.50
2020,08,29,04,24,12.40
2020,08,29,04,26,12.40
2020,08,29,04,27,12.40
2020,08,29,04,28,12.40
2020,08,29,04,29,12.40
2020,08,29,04,31,12.30
2020,08,29,04,32,12.30
2020,08,29,04,33,12.30
2020,08,29,04,34,12.30
2020,08,29,04,36,12.30
2020,08,29,04,37,12.30
2020,08,29,04,38,12.30
2020,08,29,04,39,12.30
2020,08,29,04,40,12.30
2020,08,29,04,41,12.30
2020,08,29,04,42,12.30
2020,08,29,04,43,12.30
2020,08,29,04,44,12.30
2020,08,29,04,45,12.30
2020,08,29,04,46,12.30
2020,08,29,04,47,12.30
2020,08,29,04,48,12.30
2020,08,29,04,49,12.30
2020,08,29,04,50,12.30
2020,08,29,04,51,12.20
2020,08,29,04,52,12.20
2020,08,29,04,53,12.20
2020,08,29,04,54,12.20
2020,08,29,04,55,12.20
2020,08,29,04,56,12.20
2020,08,29,04,57,12.20
2020,08,29,04,58,12.20
2020,08,29,04,59,12.20
2020,08,29,05,00,12.20
2020,08,29,05,01,12.30
2020,08,29,05,02,12.30
2020,08,29,05,03,12.30
2020,08,29,05,04,12.30
2020,08,29,05,05,12.30
2020,08,29,05,06,12.30
2020,08,29,05,07,12.30
2020,08,29,05,08,12.30
2020,08,29,05,09,12.30
2020,08,29,05,10,12.40
2020,08,29,05,11,12.40
2020,08,29,05,12,12.40
2020,08,29,05,13,12.40
2020,08,29,05,14,12.40
2020,08,29,05,15,12.40
2020,08,29,05,16,12.40
2020,08,29,05,17,12.50
2020,08,29,05,18,12.50
2020,08,29,05,19,12.50
2020,08,29,05,20,12.50
2020,08,29,05,21,12.50
2020,08,29,05,22,12.50
2020,08,29,05,23,12.50
2020,08,29,05,24,12.50
2020,08,29,05,25,12.50
2020,08,29,05,26,12.50
2020,08,29,05,27,12.50
2020,08,29,05,28,12.60
2020,08,29,05,29,12.60
2020,08,29,05,30,12.60
2020,08,29,05,31,12.60
2020,08,29,05,32,12.60
2020,08,29,05,33,12.60
2020,08,29,05,34,12.60
2020,08,29,05,35,12.60
2020,08,29,05,36,12.60
2020,08,29,05,37,12.60
2020,08,29,05,38,12.60
2020,08,29,05,39,12.60
2020,08,29,05,40,12.60
2020,08,29,05,41,12.60
2020,08,29,05,42,12.60
2020,08,29,05,43,12.60
2020,08,29,05,44,12.60
2020,08,29,05,45,12.60
2020,08,29,05,46,12.60
2020,08,29,05,47,12.60
2020,08,29,05,48,12.60
2020,08,29,05,49,12.60
2020,08,29,05,50,12.60
2020,08,29,05,51,12.60
2020,08,29,05,52,12.60
2020,08,29,05,53,12.60
2020,08,29,05,54,12.60
2020,08,29,05,55,12.60
2020,08,29,05,56,12.60
2020,08,29,05,57,12.60
2020,08,29,05,58,12.60
2020,08,29,05,59,12.60
2020,08,29,06,00,12.60
2020,08,29,06,01,12.60
2020,08,29,06,02,12.60
2020,08,29,06,03,12.60
2020,08,29,06,04,12.50
2020,08,29,06,05,12.50
2020,08,29,06,06,12.50
2020,08,29,06,07,12.50
2020,08,29,06,08,12.50
2020,08,29,06,09,12.50
2020,08,29,06,10,12.50
2020,08,29,06,11,12.50
2020,08,29,06,12,12.50
2020,08,29,06,13,12.40
2020,08,29,06,14,12.40
2020,08,29,06,15,12.40
2020,08,29,06,16,12.40
2020,08,29,06,17,12.40
2020,08,29,06,18,12.30
2020,08,29,06,19,12.30
2020,08,29,06,20,12.30
2020,08,29,06,21,12.30
2020,08,29,06,22,12.30
2020,08,29,06,23,12.30
2020,08,29,06,24,12.30
2020,08,29,06,25,12.20
2020,08,29,06,26,12.20
2020,08,29,06,27,12.20
2020,08,29,06,28,12.20
2020,08,29,06,29,12.10
2020,08,29,06,30,12.10
2020,08,29,06,32,12.10
2020,08,29,06,33,12.00
2020,08,29,06,34,12.00
2020,08,29,06,35,12.00
2020,08,29,06,36,12.00
2020,08,29,06,37,12.00
2020,08,29,06,38,11.90
2020,08,29,06,39,11.90
2020,08,29,06,40,11.90
2020,08,29,06,41,11.90
2020,08,29,06,42,11.90
2020,08,29,06,43,11.90
2020,08,29,06,44,11.80
2020,08,29,06,45,11.80
2020,08,29,06,46,11.80
2020,08,29,06,47,11.80
2020,08,29,06,48,11.80
2020,08,29,06,49,11.80
2020,08,29,06,50,11.80
2020,08,29,06,51,11.80
2020,08,29,06,52,11.80
2020,08,29,06,53,11.80
2020,08,29,06,54,11.80
2020,08,29,06,55,11.80
2020,08,29,06,56,11.80
2020,08,29,06,57,11.80
2020,08,29,06,58,11.80
2020,08,29,06,59,11.80
2020,08,29,07,00,11.80
2020,08,29,07,01,11.80
2020,08,29,07,02,11.80
2020,08,29,07,04,11.80
2020,08,29,07,06,11.80
2020,08,29,07,07,11.80
2020,08,29,07,08,11.80
2020,08,29,07,09,11.80
2020,08,29,07,11,11.80
2020,08,29,07,12,11.80
2020,08,29,07,13,11.80
2020,08,29,07,14,11.90
2020,08,29,07,16,12.00
2020,08,29,07,17,12.00
2020,08,29,07,18,12.00
2020,08,29,07,19,12.10
2020,08,29,07,21,12.10
2020,08,29,07,22,12.20
2020,08,29,07,23,12.20
2020,08,29,07,24,12.20
2020,08,29,07,26,12.30
2020,08,29,07,27,12.30
2020,08,29,07,28,12.30
2020,08,29,07,29,12.30
2020,08,29,07,31,12.40
2020,08,29,07,32,12.40
2020,08,29,07,33,12.40
2020,08,29,07,34,12.50
2020,08,29,07,36,12.50
2020,08,29,07,37,12.50
2020,08,29,07,38,12.60
2020,08,29,07,39,12.60
2020,08,29,07,41,12.70
2020,08,29,07,42,12.70
2020,08,29,07,43,12.70
2020,08,29,07,44,12.70
2020,08,29,07,46,12.70
2020,08,29,07,47,12.70
2020,08,29,07,48,12.70
2020,08,29,07,49,12.70
2020,08,29,07,51,12.70
2020,08,29,07,52,12.70
2020,08,29,07,53,12.70
2020,08,29,07,54,12.70
2020,08,29,07,56,12.70
2020,08,29,07,57,12.70
2020,08,29,07,58,12.70
2020,08,29,07,59,12.80
2020,08,29,08,01,12.80
2020,08,29,08,02,12.80
2020,08,29,08,03,12.80
2020,08,29,08,04,12.80
2020,08,29,08,06,12.80
2020,08,29,08,07,12.80
2020,08,29,08,08,12.80
2020,08,29,08,09,12.80
2020,08,29,08,11,12.80
2020,08,29,08,12,12.80
2020,08,29,08,13,12.80
2020,08,29,08,14,12.80
2020,08,29,08,16,12.80
2020,08,29,08,17,12.80
2020,08,29,08,18,12.80
2020,08,29,08,19,12.80
2020,08,29,08,21,12.80
2020,08,29,08,22,12.80
2020,08,29,08,23,12.80
2020,08,29,08,24,12.80
2020,08,29,08,25,12.80
2020,08,29,08,26,12.80
2020,08,29,08,27,12.90
2020,08,29,08,28,12.90
2020,08,29,08,29,12.90
2020,08,29,08,30,12.90
2020,08,29,08,31,12.90
2020,08,29,08,32,12.90
2020,08,29,08,33,12.90
2020,08,29,08,34,12.90
2020,08,29,08,36,12.90
2020,08,29,08,37,12.90
2020,08,29,08,38,12.90
2020,08,29,08,39,12.90
2020,08,29,08,40,12.90
2020,08,29,08,41,12.90
2020,08,29,08,42,12.90
2020,08,29,08,43,12.90
2020,08,29,08,44,12.90
2020,08,29,08,45,12.90
2020,08,29,08,46,12.90
2020,08,29,08,47,12.90
2020,08,29,08,48,12.90
2020,08,29,08,49,12.90
2020,08,29,08,50,12.90
2020,08,29,08,51,12.90
2020,08,29,08,52,12.90
2020,08,29,08,53,12.90
2020,08,29,08,54,12.90
2020,08,29,08,55,13.00
2020,08,29,08,56,13.00
2020,08,29,08,57,13.00
2020,08,29,08,58,13.00
2020,08,29,08,59,13.00
2020,08,29,09,00,13.00
2020,08,29,09,01,13.00
2020,08,29,09,02,13.00
2020,08,29,09,03,13.00
2020,08,29,09,04,13.00
2020,08,29,09,05,13.10
2020,08,29,09,06,13.10
2020,08,29,09,07,13.10
2020,08,29,09,08,13.10
2020,08,29,09,09,13.10
2020,08,29,09,10,13.20
2020,08,29,09,11,13.20
2020,08,29,09,12,13.20
2020,08,29,09,13,13.20
2020,08,29,09,14,13.30
2020,08,29,09,15,13.30
2020,08,29,09,16,13.30
2020,08,29,09,17,13.40
2020,08,29,09,18,13.50
2020,08,29,09,19,13.60
2020,08,29,09,20,13.60
2020,08,29,09,21,13.70
2020,08,29,09,22,13.70
2020,08,29,09,23,13.70
2020,08,29,09,24,13.70
2020,08,29,09,25,13.70
2020,08,29,09,26,13.80
2020,08,29,09,27,13.80
2020,08,29,09,28,13.80
2020,08,29,09,29,13.80
2020,08,29,09,30,13.90
2020,08,29,09,31,13.90
2020,08,29,09,32,13.90
2020,08,29,09,33,14.00
2020,08,29,09,34,14.00
2020,08,29,09,35,14.10
2020,08,29,09,36,14.20
2020,08,29,09,37,14.20
2020,08,29,09,38,14.20
2020,08,29,09,39,14.30
2020,08,29,09,40,14.40
2020,08,29,09,41,14.40
2020,08,29,09,42,14.50
2020,08,29,09,43,14.50
2020,08,29,09,44,14.50
2020,08,29,09,45,14.60
2020,08,29,09,46,14.70
2020,08,29,09,47,14.70
2020,08,29,09,48,14.80
2020,08,29,09,49,14.80
2020,08,29,09,50,14.80
2020,08,29,09,51,14.90
2020,08,29,09,52,15.00
2020,08,29,09,53,15.10
2020,08,29,09,54,15.10
2020,08,29,09,55,15.20
2020,08,29,09,56,15.30
2020,08,29,09,57,15.30
2020,08,29,09,58,15.40
2020,08,29,09,59,15.50
2020,08,29,10,00,15.60
2020,08,29,10,01,15.70
2020,08,29,10,02,15.80
2020,08,29,10,03,15.80
2020,08,29,10,04,15.80
2020,08,29,10,05,15.80
2020,08,29,10,06,15.80
2020,08,29,10,07,15.80
2020,08,29,10,08,15.80
2020,08,29,10,09,15.80
2020,08,29,10,10,15.80
2020,08,29,10,11,15.80
2020,08,29,10,12,15.90
2020,08,29,10,13,15.90
2020,08,29,10,14,16.10
2020,08,29,10,15,16.10
2020,08,29,10,16,16.10
2020,08,29,10,17,16.20
2020,08,29,10,18,16.20
2020,08,29,10,19,16.30
2020,08,29,10,20,16.20
2020,08,29,10,21,16.20
2020,08,29,10,22,16.20
2020,08,29,10,23,16.20
2020,08,29,10,24,16.20
2020,08,29,10,25,16.30
2020,08,29,10,26,16.30
2020,08,29,10,27,16.40
2020,08,29,10,28,16.40
2020,08,29,10,29,16.40
2020,08,29,10,30,16.60
2020,08,29,10,31,16.70
2020,08,29,10,32,16.70
2020,08,29,10,33,16.70
2020,08,29,10,34,16.70
2020,08,29,10,35,16.70
2020,08,29,10,36,16.70
2020,08,29,10,37,16.70
2020,08,29,10,38,16.70
2020,08,29,10,39,16.70
2020,08,29,10,40,16.70
2020,08,29,10,41,16.70
2020,08,29,10,42,16.70
2020,08,29,10,44,16.70
2020,08,29,10,46,16.70
2020,08,29,10,47,16.70
2020,08,29,10,48,16.70
2020,08,29,10,49,16.80
2020,08,29,10,51,16.80
2020,08,29,10,52,16.80
2020,08,29,10,53,16.80
2020,08,29,10,54,16.80
2020,08,29,10,56,16.80
2020,08,29,10,57,16.80
2020,08,29,10,58,16.80
2020,08,29,10,59,16.80
2020,08,29,11,01,16.90
2020,08,29,11,02,17.00
2020,08,29,11,03,17.00
2020,08,29,11,04,17.10
2020,08,29,11,06,17.10
2020,08,29,11,07,17.10
2020,08,29,11,08,17.10
2020,08,29,11,09,17.10
2020,08,29,11,11,17.20
2020,08,29,11,12,17.20
2020,08,29,11,13,17.30
2020,08,29,11,14,17.30
2020,08,29,11,16,17.40
2020,08,29,11,17,17.50
2020,08,29,11,18,17.50
2020,08,29,11,19,17.60
2020,08,29,11,21,17.70
2020,08,29,11,22,17.80
2020,08,29,11,23,17.90
2020,08,29,11,24,17.90
2020,08,29,11,26,18.20
2020,08,29,11,27,18.30
2020,08,29,11,28,18.30
2020,08,29,11,29,18.40
2020,08,29,11,31,18.60
2020,08,29,11,32,18.70
2020,08,29,11,33,18.80
2020,08,29,11,34,18.80
2020,08,29,11,36,18.90
2020,08,29,11,37,19.10
2020,08,29,11,38,19.10
2020,08,29,11,39,19.10
2020,08,29,11,41,19.20
2020,08,29,11,42,19.20
2020,08,29,11,43,19.20
2020,08,29,11,44,19.30
2020,08,29,11,46,19.30
2020,08,29,11,47,19.30
2020,08,29,11,48,19.30
2020,08,29,11,49,19.30
2020,08,29,11,51,19.30
2020,08,29,11,52,19.30
2020,08,29,11,53,19.30
2020,08,29,11,54,19.30
2020,08,29,11,56,19.30
2020,08,29,11,57,19.30
2020,08,29,11,58,19.40
2020,08,29,11,59,19.40
2020,08,29,12,01,19.40
2020,08,29,12,02,19.50
2020,08,29,12,03,19.50
2020,08,29,12,04,19.50
2020,08,29,12,06,19.60
2020,08,29,12,07,19.60
2020,08,29,12,08,19.60
2020,08,29,12,09,19.70
2020,08,29,12,11,19.60
2020,08,29,12,12,19.60
2020,08,29,12,13,19.70
2020,08,29,12,14,19.70
2020,08,29,12,15,19.70
2020,08,29,12,16,19.60
2020,08,29,12,17,19.60
2020,08,29,12,18,19.60
2020,08,29,12,19,19.60
2020,08,29,12,20,19.60
2020,08,29,12,21,19.60
2020,08,29,12,22,19.60
2020,08,29,12,23,19.60
2020,08,29,12,24,19.60
2020,08,29,12,25,19.60
2020,08,29,12,26,19.60
2020,08,29,12,27,19.60
2020,08,29,12,28,19.60
2020,08,29,12,29,19.70
2020,08,29,12,30,19.70
2020,08,29,12,32,19.80
2020,08,29,12,33,19.80
2020,08,29,12,34,19.80
2020,08,29,12,35,19.90
2020,08,29,12,36,19.90
2020,08,29,12,37,19.90
2020,08,29,12,38,19.90
2020,08,29,12,39,19.90
2020,08,29,12,40,19.90
2020,08,29,12,41,19.90
2020,08,29,12,42,19.90
2020,08,29,12,43,19.90
2020,08,29,12,44,19.90
2020,08,29,12,45,19.90
2020,08,29,12,46,19.90
2020,08,29,12,47,19.90
2020,08,29,12,48,19.90
2020,08,29,12,49,19.90
2020,08,29,12,50,19.90
2020,08,29,12,51,19.90
2020,08,29,12,52,19.90
2020,08,29,12,53,19.90
2020,08,29,12,54,19.90
2020,08,29,12,55,19.90
2020,08,29,12,56,19.80
2020,08,29,12,57,19.80
2020,08,29,12,58,19.70
2020,08,29,12,59,19.60
2020,08,29,13,00,19.60
2020,08,29,13,01,19.50
2020,08,29,13,02,19.40
2020,08,29,13,03,19.30
2020,08,29,13,04,19.30
2020,08,29,13,05,19.30
2020,08,29,13,06,19.30
2020,08,29,13,07,19.30
2020,08,29,13,08,19.30
2020,08,29,13,09,19.30
2020,08,29,13,10,19.20
2020,08,29,13,11,19.20
2020,08,29,13,12,19.20
2020,08,29,13,13,19.20
2020,08,29,13,14,19.10
2020,08,29,13,15,19.10
2020,08,29,13,16,19.10
2020,08,29,13,17,19.10
2020,08,29,13,18,19.10
2020,08,29,13,19,19.20
2020,08,29,13,20,19.20
2020,08,29,13,21,19.20
2020,08,29,13,22,19.20
2020,08,29,13,23,19.20
2020,08,29,13,24,19.20
2020,08,29,13,25,19.20
2020,08,29,13,26,19.20
2020,08,29,13,27,19.20
2020,08,29,13,28,19.30
2020,08,29,13,29,19.30
2020,08,29,13,30,19.30
2020,08,29,13,31,19.30
2020,08,29,13,32,19.40
2020,08,29,13,33,19.40
2020,08,29,13,34,19.40
2020,08,29,13,35,19.40
2020,08,29,13,36,19.50
2020,08,29,13,37,19.50
2020,08,29,13,38,19.50
2020,08,29,13,39,19.50
2020,08,29,13,40,19.50
2020,08,29,13,41,19.50
2020,08,29,13,42,19.50
2020,08,29,13,43,19.50
2020,08,29,13,44,19.60
2020,08,29,13,45,19.60
2020,08,29,13,46,19.70
2020,08,29,13,47,19.70
2020,08,29,13,48,19.80
2020,08,29,13,49,19.80
2020,08,29,13,50,19.90
2020,08,29,13,51,19.90
2020,08,29,13,52,19.90
2020,08,29,13,53,19.90
2020,08,29,13,54,19.90
2020,08,29,13,55,19.90
2020,08,29,13,56,19.90
2020,08,29,13,57,19.90
2020,08,29,13,58,19.80
2020,08,29,13,59,19.80
2020,08,29,14,00,19.80
2020,08,29,14,01,19.80
2020,08,29,14,02,19.70
2020,08,29,14,03,19.70
2020,08,29,14,04,19.70
2020,08,29,14,05,19.70
2020,08,29,14,06,19.70
2020,08,29,14,07,19.70
2020,08,29,14,08,19.80
2020,08,29,14,09,19.80
2020,08,29,14,10,19.80
2020,08,29,14,11,19.70
2020,08,29,14,12,19.70
2020,08,29,14,13,19.70
2020,08,29,14,14,19.50
2020,08,29,14,15,19.40
2020,08,29,14,16,19.20
2020,08,29,14,17,19.10
2020,08,29,14,18,18.90
2020,08,29,14,19,18.90
2020,08,29,14,20,18.70
2020,08,29,14,21,18.70
2020,08,29,14,22,18.40
2020,08,29,14,23,18.30
2020,08,29,14,24,18.20
2020,08,29,14,25,18.20
2020,08,29,14,26,18.10
2020,08,29,14,27,17.90
2020,08,29,14,29,17.80
2020,08,29,14,31,17.50
2020,08,29,14,32,17.50
2020,08,29,14,33,17.50
2020,08,29,14,34,17.50
2020,08,29,14,36,17.40
2020,08,29,14,37,17.30
2020,08,29,14,38,17.30
2020,08,29,14,39,17.30
2020,08,29,14,41,17.30
2020,08,29,14,42,17.30
2020,08,29,14,43,17.30
2020,08,29,14,44,17.30
2020,08,29,14,46,17.30
2020,08,29,14,47,17.30
2020,08,29,14,48,17.20
2020,08,29,14,49,17.20
2020,08,29,14,51,17.10
2020,08,29,14,52,17.00
2020,08,29,14,53,17.00
2020,08,29,14,54,16.90
2020,08,29,14,56,16.70
2020,08,29,14,57,16.70
2020,08,29,14,58,16.40
2020,08,29,14,59,16.40
2020,08,29,15,01,16.40
2020,08,29,15,02,16.40
2020,08,29,15,03,16.40
2020,08,29,15,04,16.60
2020,08,29,15,06,16.70
2020,08,29,15,07,16.70
2020,08,29,15,08,16.80
2020,08,29,15,09,16.90
2020,08,29,15,11,17.10
2020,08,29,15,12,17.20
2020,08,29,15,13,17.30
2020,08,29,15,14,17.30
2020,08,29,15,16,17.40
2020,08,29,15,17,17.50
2020,08,29,15,18,17.60
2020,08,29,15,19,17.70
2020,08,29,15,21,17.80
2020,08,29,15,22,17.80
2020,08,29,15,23,17.80
2020,08,29,15,24,17.70
2020,08,29,15,26,17.70
2020,08,29,15,27,17.80
2020,08,29,15,28,17.80
2020,08,29,15,29,17.90
2020,08,29,15,31,17.90
2020,08,29,15,32,18.10
2020,08,29,15,33,18.10
2020,08,29,15,34,18.10
2020,08,29,15,36,17.90
2020,08,29,15,37,17.80
2020,08,29,15,38,17.70
2020,08,29,15,39,17.70
2020,08,29,15,41,17.60
2020,08,29,15,42,17.60
2020,08,29,15,43,17.60
2020,08,29,15,44,17.70
2020,08,29,15,46,17.80
2020,08,29,15,47,17.90
2020,08,29,15,48,17.90
2020,08,29,15,49,17.90
2020,08,29,15,51,18.10
2020,08,29,15,52,18.10
2020,08,29,15,53,18.20
2020,08,29,15,54,18.20
2020,08,29,15,56,18.20
2020,08,29,15,57,18.30
2020,08,29,15,58,18.30
2020,08,29,15,59,18.40
2020,08,29,16,00,18.30
2020,08,29,16,01,18.30
2020,08,29,16,02,18.30
2020,08,29,16,03,18.30
2020,08,29,16,04,18.20
2020,08,29,16,06,18.20
2020,08,29,16,07,18.10
2020,08,29,16,08,18.10
2020,08,29,16,09,18.10
2020,08,29,16,10,17.90
2020,08,29,16,11,17.90
2020,08,29,16,12,17.90
2020,08,29,16,13,17.90
2020,08,29,16,14,17.80
2020,08,29,16,15,17.70
2020,08,29,16,16,17.70
2020,08,29,16,17,17.60
2020,08,29,16,18,17.60
2020,08,29,16,19,17.50
2020,08,29,16,20,17.50
2020,08,29,16,21,17.50
2020,08,29,16,22,17.40
2020,08,29,16,23,17.40
2020,08,29,16,24,17.30
2020,08,29,16,25,17.30
2020,08,29,16,26,17.30
2020,08,29,16,27,17.30
2020,08,29,16,28,17.30
2020,08,29,16,29,17.30
2020,08,29,16,30,17.30
2020,08,29,16,31,17.30
2020,08,29,16,32,17.30
2020,08,29,16,33,17.40
2020,08,29,16,34,17.40
2020,08,29,16,35,17.40
2020,08,29,16,36,17.40
2020,08,29,16,37,17.40
2020,08,29,16,38,17.40
2020,08,29,16,39,17.40
2020,08,29,16,40,17.40
2020,08,29,16,41,17.30
2020,08,29,16,42,17.30
2020,08,29,16,43,17.30
2020,08,29,16,44,17.30
2020,08,29,16,45,17.30
2020,08,29,16,46,17.30
2020,08,29,16,47,17.20
2020,08,29,16,48,17.20
2020,08,29,16,49,17.10
2020,08,29,16,50,17.10
2020,08,29,16,51,17.10
2020,08,29,16,52,17.10
2020,08,29,16,53,17.10
2020,08,29,16,54,17.20
2020,08,29,16,55,17.20
2020,08,29,16,56,17.20
2020,08,29,16,57,17.30
2020,08,29,16,58,17.30
2020,08,29,16,59,17.30
2020,08,29,17,00,17.30
2020,08,29,17,01,17.30
2020,08,29,17,02,17.30
2020,08,29,17,03,17.30
2020,08,29,17,04,17.30
2020,08,29,17,05,17.40
2020,08,29,17,06,17.40
2020,08,29,17,07,17.40
2020,08,29,17,08,17.40
2020,08,29,17,09,17.40
2020,08,29,17,10,17.40
2020,08,29,17,11,17.40
2020,08,29,17,12,17.40
2020,08,29,17,13,17.40
2020,08,29,17,14,17.40
2020,08,29,17,15,17.40
2020,08,29,17,16,17.40
2020,08,29,17,17,17.40
2020,08,29,17,18,17.50
2020,08,29,17,19,17.50
2020,08,29,17,20,17.50
2020,08,29,17,21,17.50
2020,08,29,17,22,17.50
2020,08,29,17,23,17.60
2020,08,29,17,24,17.60
2020,08,29,17,25,17.60
2020,08,29,17,26,17.70
2020,08,29,17,27,17.70
2020,08,29,17,28,17.70
2020,08,29,17,29,17.70
2020,08,29,17,30,17.70
2020,08,29,17,31,17.70
2020,08,29,17,32,17.70
2020,08,29,17,33,17.70
2020,08,29,17,34,17.70
2020,08,29,17,35,17.60
2020,08,29,17,36,17.50
2020,08,29,17,37,17.40
2020,08,29,17,38,17.40
2020,08,29,17,39,17.30
2020,08,29,17,40,17.30
2020,08,29,17,41,17.20
2020,08,29,17,42,17.00
2020,08,29,17,43,17.00
2020,08,29,17,44,16.90
2020,08,29,17,45,16.90
2020,08,29,17,46,16.80
2020,08,29,17,47,16.80
2020,08,29,17,48,16.70
2020,08,29,17,49,16.70
2020,08,29,17,50,16.70
2020,08,29,17,51,16.70
2020,08,29,17,52,16.70
2020,08,29,17,53,16.60
2020,08,29,17,54,16.40
2020,08,29,17,55,16.40
2020,08,29,17,56,16.40
2020,08,29,17,57,16.40
2020,08,29,17,58,16.30
2020,08,29,17,59,16.30
2020,08,29,18,00,16.30
2020,08,29,18,01,16.30
2020,08,29,18,02,16.30
2020,08,29,18,03,16.30
2020,08,29,18,04,16.30
2020,08,29,18,05,16.40
2020,08,29,18,07,16.40
2020,08,29,18,09,16.40
2020,08,29,18,11,16.40
2020,08,29,18,12,16.40
2020,08,29,18,13,16.40
2020,08,29,18,14,16.30
2020,08,29,18,16,16.20
2020,08,29,18,17,16.20
2020,08,29,18,18,16.20
2020,08,29,18,19,16.20
2020,08,29,18,21,16.20
2020,08,29,18,22,16.20
2020,08,29,18,23,16.20
2020,08,29,18,24,16.20
2020,08,29,18,26,16.20
2020,08,29,18,27,16.20
2020,08,29,18,28,16.10
2020,08,29,18,29,16.10
2020,08,29,18,30,16.10
2020,08,29,18,32,15.90
2020,08,29,18,33,15.80
2020,08,29,18,34,15.80
2020,08,29,18,36,15.70
2020,08,29,18,37,15.60
2020,08,29,18,38,15.50
2020,08,29,18,39,15.40
2020,08,29,18,41,15.20
2020,08,29,18,42,15.20
2020,08,29,18,43,15.10
2020,08,29,18,44,15.00
2020,08,29,18,46,14.90
2020,08,29,18,47,14.90
2020,08,29,18,48,14.80
2020,08,29,18,49,14.80
2020,08,29,18,51,14.80
2020,08,29,18,52,14.80
2020,08,29,18,53,14.80
2020,08,29,18,54,14.70
2020,08,29,18,56,14.70
2020,08,29,18,57,14.60
2020,08,29,18,58,14.60
2020,08,29,18,59,14.50
2020,08,29,19,01,14.40
2020,08,29,19,02,14.40
2020,08,29,19,03,14.30
2020,08,29,19,04,14.30
2020,08,29,19,06,14.20